DLH35X EDDF-ESSA

Flight info

Callsign DLH35X
Flight time N/A
Altitude 35000
Route MARUN6E/07C MARUN Y150 TOLGI DCT OBATU DCT BERIM DCT ROSOK DCT SONAL DCT VIBAR Z227 NILUG
Aircraft A321/M-SDE3FGHIRWY/LB1

Departure

Time 2026-05-01 14:30
Airport Frankfurt Main Airport (EDDF)

Arrival

Time N/A
Airport Stockholm-Arlanda Airport (ESSA)
Time Latitude Longitude Altitude Speed Heading
2026-05-01 13:48 50.04455 8.56430 356 ft 0 kts 154°
2026-05-01 14:17 50.04466 8.56421 358 ft 4 kts 154°
2026-05-01 14:17 50.04491 8.56404 363 ft 4 kts 161°
2026-05-01 14:17 50.04514 8.56398 360 ft 4 kts 207°
2026-05-01 14:17 50.04521 8.56404 358 ft 2 kts 250°
2026-05-01 14:18 50.04516 8.56380 359 ft 0 kts 250°
2026-05-01 14:22 50.04511 8.56360 363 ft 4 kts 250°
2026-05-01 14:22 50.04499 8.56306 362 ft 6 kts 250°
2026-05-01 14:22 50.04482 8.56236 363 ft 7 kts 249°
2026-05-01 14:23 50.04463 8.56159 359 ft 8 kts 249°
2026-05-01 14:23 50.04441 8.56070 363 ft 9 kts 249°
2026-05-01 14:23 50.04389 8.56029 356 ft 10 kts 169°
2026-05-01 14:23 50.04312 8.56074 356 ft 13 kts 158°
2026-05-01 14:24 50.04285 8.56196 354 ft 13 kts 111°
2026-05-01 14:24 50.04209 8.56261 360 ft 13 kts 159°
2026-05-01 14:24 50.04132 8.56275 357 ft 12 kts 214°
2026-05-01 14:24 50.04094 8.56138 358 ft 17 kts 250°
2026-05-01 14:25 50.04047 8.55941 355 ft 21 kts 249°
2026-05-01 14:25 50.03995 8.55726 354 ft 22 kts 250°
2026-05-01 14:25 50.03941 8.55504 352 ft 22 kts 249°
2026-05-01 14:25 50.03889 8.55281 356 ft 22 kts 251°
2026-05-01 14:26 50.03835 8.55055 357 ft 23 kts 250°
2026-05-01 14:26 50.03721 8.54581 353 ft 25 kts 250°
2026-05-01 14:26 50.03674 8.54383 349 ft 10 kts 250°
2026-05-01 14:27 50.03633 8.54302 349 ft 10 kts 187°
2026-05-01 14:27 50.03564 8.54333 340 ft 10 kts 160°
2026-05-01 14:27 50.03502 8.54368 350 ft 9 kts 160°
2026-05-01 14:28 50.03487 8.54408 343 ft 0 kts 68°
2026-05-01 14:29 50.03488 8.54410 343 ft 2 kts 68°
2026-05-01 14:30 50.04110 8.57012 369 ft 169 kts 69°
2026-05-01 14:30 50.04537 8.58800 868 ft 176 kts 73°
2026-05-01 14:30 50.04957 8.60586 1505 ft 185 kts 73°
2026-05-01 14:31 50.06678 8.63784 2257 ft 220 kts 16°
2026-05-01 14:31 50.08232 8.63966 2784 ft 228 kts
2026-05-01 14:31 50.09820 8.63852 3448 ft 227 kts 359°
2026-05-01 14:31 50.11408 8.63708 4011 ft 232 kts 359°
2026-05-01 14:32 50.13073 8.63520 4309 ft 249 kts 357°
2026-05-01 14:32 50.14257 8.63355 4367 ft 267 kts 356°
2026-05-01 14:32 50.16831 8.63038 4973 ft 282 kts 356°
2026-05-01 14:32 50.18777 8.62831 5622 ft 286 kts 358°
2026-05-01 14:33 50.20776 8.62666 6280 ft 290 kts 358°
2026-05-01 14:33 50.22801 8.62521 6910 ft 293 kts 358°
2026-05-01 14:33 50.24848 8.62389 7525 ft 295 kts 359°
2026-05-01 14:33 50.26907 8.62262 8165 ft 297 kts 359°
2026-05-01 14:34 50.28981 8.62134 8777 ft 300 kts 358°
2026-05-01 14:34 50.31070 8.62001 9409 ft 303 kts 359°
2026-05-01 14:34 50.33179 8.61868 10046 ft 304 kts 359°
2026-05-01 14:34 50.35311 8.61809 10566 ft 311 kts
2026-05-01 14:35 50.37510 8.61808 10686 ft 329 kts
2026-05-01 14:35 50.39861 8.61832 10814 ft 347 kts
2026-05-01 14:35 50.42330 8.61861 11078 ft 359 kts
2026-05-01 14:35 50.44844 8.61928 11538 ft 363 kts
2026-05-01 14:36 50.47366 8.62286 12071 ft 366 kts
2026-05-01 14:36 50.49908 8.62649 12621 ft 368 kts
2026-05-01 14:36 50.52463 8.63010 13181 ft 370 kts
2026-05-01 14:36 50.55036 8.63367 13723 ft 372 kts
2026-05-01 14:37 50.57589 8.63720 14248 ft 374 kts
2026-05-01 14:37 50.60188 8.64080 14728 ft 377 kts
2026-05-01 14:37 50.62809 8.64449 15205 ft 379 kts
2026-05-01 14:37 50.65443 8.64825 15681 ft 381 kts
2026-05-01 14:38 50.68095 8.65205 16159 ft 384 kts
2026-05-01 14:38 50.70762 8.65587 16619 ft 386 kts
2026-05-01 14:38 50.73443 8.65970 17087 ft 388 kts
2026-05-01 14:38 50.75226 8.66226 17396 ft 389 kts
2026-05-01 14:39 50.77918 8.66756 17832 ft 391 kts 14°
2026-05-01 14:39 50.79414 8.67405 18079 ft 391 kts 21°
2026-05-01 14:39 50.82618 8.69948 18649 ft 390 kts 37°
2026-05-01 14:39 50.84681 8.72723 19022 ft 389 kts 49°
2026-05-01 14:40 50.86382 8.76044 19387 ft 389 kts 54°
2026-05-01 14:40 50.88017 8.79470 19781 ft 391 kts 54°
2026-05-01 14:40 50.89103 8.81740 20031 ft 392 kts 54°
2026-05-01 14:40 50.90755 8.85193 20411 ft 393 kts 54°
2026-05-01 14:41 50.92411 8.88657 20810 ft 395 kts 54°
2026-05-01 14:41 50.94614 8.93269 21303 ft 397 kts 54°
2026-05-01 14:41 50.96282 8.96765 21681 ft 399 kts 54°
2026-05-01 14:41 50.97959 9.00285 22048 ft 400 kts 54°
2026-05-01 14:42 50.99091 9.02660 22303 ft 401 kts 54°
2026-05-01 14:42 51.00777 9.06208 22636 ft 403 kts 55°
2026-05-01 14:42 51.02441 9.09721 22997 ft 404 kts 54°
2026-05-01 14:42 51.04130 9.13298 23328 ft 406 kts 54°
2026-05-01 14:43 51.05824 9.16897 23696 ft 407 kts 54°
2026-05-01 14:43 51.07525 9.20508 24025 ft 409 kts 54°
2026-05-01 14:43 51.09466 9.23840 24297 ft 413 kts 41°
2026-05-01 14:43 51.11831 9.26461 24586 ft 416 kts 31°
2026-05-01 14:44 51.14418 9.28566 24859 ft 419 kts 26°
2026-05-01 14:44 51.19786 9.32314 25416 ft 423 kts 25°
2026-05-01 14:44 51.22445 9.34332 25678 ft 424 kts 28°
2026-05-01 14:45 51.25069 9.36513 25932 ft 426 kts 30°
2026-05-01 14:45 51.30204 9.41160 26463 ft 429 kts 31°
2026-05-01 14:45 51.32787 9.43570 26738 ft 431 kts 32°
2026-05-01 14:46 51.35382 9.45982 26995 ft 432 kts 31°
2026-05-01 14:46 51.40628 9.50774 27494 ft 436 kts 31°
2026-05-01 14:46 51.43274 9.53159 27762 ft 438 kts 31°
2026-05-01 14:47 51.45934 9.55548 28010 ft 439 kts 30°
2026-05-01 14:47 51.48610 9.57957 28243 ft 441 kts 31°
2026-05-01 14:47 51.51287 9.60377 28511 ft 443 kts 30°
2026-05-01 14:48 51.56627 9.65236 28991 ft 446 kts 31°
2026-05-01 14:48 51.59329 9.67704 29224 ft 447 kts 30°
2026-05-01 14:48 51.64757 9.72652 29688 ft 450 kts 30°
2026-05-01 14:49 51.70220 9.77643 30082 ft 453 kts 30°
2026-05-01 14:49 51.75705 9.82688 30485 ft 455 kts 31°
2026-05-01 14:50 51.80263 9.86897 30873 ft 454 kts 30°
2026-05-01 14:50 51.86625 9.92773 31383 ft 453 kts 30°
2026-05-01 14:51 51.89361 9.95303 31579 ft 453 kts 30°
2026-05-01 14:51 51.94830 10.00361 31997 ft 452 kts 30°
2026-05-01 14:52 52.00290 10.05429 32421 ft 452 kts 30°
2026-05-01 14:52 52.03008 10.07969 32632 ft 451 kts 30°
2026-05-01 14:52 52.08439 10.13056 33044 ft 450 kts 30°
2026-05-01 14:53 52.11121 10.15566 33240 ft 450 kts 30°
2026-05-01 14:53 52.16530 10.20634 33342 ft 446 kts 30°
2026-05-01 14:54 52.21889 10.25674 33340 ft 444 kts 30°
2026-05-01 14:54 52.27233 10.30720 33344 ft 444 kts 30°
2026-05-01 14:55 52.32586 10.35782 33356 ft 445 kts 31°
2026-05-01 14:55 52.37915 10.40830 33357 ft 446 kts 31°
2026-05-01 14:56 52.43277 10.45941 33360 ft 446 kts 30°
2026-05-01 14:56 52.48652 10.51069 33366 ft 446 kts 31°
2026-05-01 14:57 52.54014 10.56185 33383 ft 445 kts 31°
2026-05-01 14:57 52.61992 10.63842 33379 ft 444 kts 31°
2026-05-01 14:58 52.67317 10.68985 33371 ft 443 kts 31°
2026-05-01 14:58 52.72632 10.74131 33368 ft 443 kts 31°
2026-05-01 14:59 52.77950 10.79272 33369 ft 443 kts 31°
2026-05-01 14:59 52.83223 10.84396 33369 ft 443 kts 31°
2026-05-01 15:00 52.91184 10.92160 33367 ft 443 kts 31°
2026-05-01 15:01 52.96490 10.97345 33367 ft 443 kts 31°
2026-05-01 15:01 53.01789 11.02542 33374 ft 443 kts 31°
2026-05-01 15:02 53.07054 11.07722 33365 ft 443 kts 31°
2026-05-01 15:02 53.12342 11.12961 33365 ft 442 kts 31°
2026-05-01 15:03 53.17633 11.18197 33364 ft 442 kts 31°
2026-05-01 15:03 53.22926 11.23444 33366 ft 442 kts 32°
2026-05-01 15:04 53.28179 11.28679 33368 ft 442 kts 32°
2026-05-01 15:04 53.33459 11.33953 33365 ft 442 kts 31°
2026-05-01 15:05 53.38740 11.39235 33378 ft 442 kts 32°
2026-05-01 15:05 53.44011 11.44522 33382 ft 441 kts 32°
2026-05-01 15:06 53.49234 11.49788 33379 ft 441 kts 32°
2026-05-01 15:06 53.54476 11.55110 33368 ft 440 kts 32°
2026-05-01 15:07 53.59731 11.60428 33375 ft 440 kts 32°
2026-05-01 15:07 53.64974 11.65756 33375 ft 440 kts 32°
2026-05-01 15:08 53.70219 11.71097 33375 ft 440 kts 32°
2026-05-01 15:08 53.75427 11.76416 33367 ft 441 kts 32°
2026-05-01 15:09 53.80667 11.81795 33374 ft 441 kts 32°